Погода в Таре

Погода в Таре : погода сейчас, прогноз погоды и архив. Всё, что Вы хотите узнать о погоде в Таре!

Хотите узнать прогноз погоды в Таре? Тогда Вам сюда: Погода в Таре

Поиск расширенной информации на нашем сайте:

Полезная информация: провода для активного сабвуфера

Другие новости

Новости СМИ2

Главная страница сайта

Новости сайта

03.07.2017

Напоминаем, что на нашем специализированном сайте Метеоцентр.Азия вы можете получить высокодетализированные автоматические прогнозы погоды по пунктам России, СНГ и мира в авиационном формате (включающие направление и скорость ветра, видимость, явления погоды, количество и форму облачности, нижнюю и верхнюю границу облачности).

Рекомендуем: планировка таунхаусов

Погода в Таре - сегодня

Время (UTC), дата Ветер
(°,м/с) 
Видим.   Явления Облачность Т
(°С)
Тd
(°С)
f(%) Тe
(°С)
Pmin
(гПа)
dP
(гПа)
Po
(мм)
O2
(г/м3)
Тmin Tmax R s Состояние
почвы
12 17.02.18 160 (Ю) 20000 м    ясно 
-13.9 -20.4 58 -16  1036.9  -1  770  329           
15 17.02.18 170 (Ю) 10 км    ясно 
-17.3 -20.8 74 -17  1036.6  -0.4  770  333    -11.3       
18 17.02.18 150 (ЮВ) 10 км    ясно 
-18.1 -20.9 79 -18  1036  -0.7  769  334           
21 17.02.18 140 (ЮВ) 10 км    ясно 
-19.7 -22.7 77 -20  1034.8  -1.2  769  335           
00 18.02.18 150 (ЮВ) 10 км    10/0 средняя 
[As trans]
-18 -21 77 -18  1033.6  -1.1  768  333           
03 18.02.18 170 (Ю) 20000 м  [диам. изморози 1 мм]  10/0 средняя, верхняя 
[Ac trans|Ci fib]
-15.1 -17.8 80 -19  1032.7  -0.8  767  329  -20.3      33  равномерный
сухой снег
100% 
09 18.02.18 210 (ЮЗ) 20000 м  {снег}  10/0 верхняя 
[Ci sp]
-10 -14.8 68 -13  1031.3  -0.3  766  322           
12 18.02.18 200 (Ю) 20000 м  {снег}  4/0 верхняя 
[Ci fib]
-10.1 -14.9 68 -12  1031.2  766  322           
15 18.02.18 200 (Ю) 10 км    4/0 средняя 
[Ac trans]
-13.9 -16.2 83 -16  1031.9  0.5  767  327    -8.5  0.5     
18 18.02.18 160 (Ю) 10 км    9/0 средняя 
[Ac As]
-13.2 -15.7 81 -13  1031.5  -0.3  766  326           
21 18.02.18 170 (Ю) 10 км    10/0 средняя 
[Ac und]
-14.6 -17.2 81 -15  1031.3  -0.2  766  328           
00 19.02.18 160 (Ю) 4000 м  слаб. снег  10/0 средняя 
[As op]
-12.9 -15.5 81 -13  1031.3  0.1  766  325           
03 19.02.18 200 (Ю) 20000 м  {снег}  10/0 средняя, верхняя 
[Ac trans|Ci fib]
-13.7 -15.8 84 -14  1032.1  0.7  767  327  -15    0.0  34  равномерный
сухой снег
100% 
06 19.02.18 210 (ЮЗ) 20000 м  {снег}  10/0 верхняя 
[Cs]
-7.3 -12.6 66 -10  1031.5  -0.3  766  318           
09 19.02.18 250 (З) 20000 м    10/0 верхняя 
[Cs]
-3.6 -11.9 53 -6  1030.9  -0.5  766  314           
12 19.02.18 240 (ЮЗ) 20000 м    10/0 средняя, верхняя 
[Ac trans|Ci fib]
-5 -12.5 56 -7  1031.6  0.6  767  316           
15 19.02.18 220 (ЮЗ) 10 км    3/0 верхняя 
[Ci sp]
-7.7 -13.6 63 -9  1032.1  0.4  767  319    -3.3       
18 19.02.18 200 (Ю) 10 км    3/0 верхняя 
[Ci fib]
-12.8 -15.9 78 -15  1032.1  -0.2  767  326           
21 19.02.18 170 (Ю) 10 км    ясно 
-15.9 -18.5 80 -16  1032.2  -0.1  767  330           
00 20.02.18 190 (Ю) 10 км    4/0 верхняя 
[Ci sp]
-14.9 -17.5 81 -17  1032  0.1  767  328           
03 20.02.18 190 (Ю) 20000 м  [диам. изморози 1 мм]  9/0 средняя 
[Ac As]
-13.3 -17.2 72 -17  1031.2  -0.8  766  326  -16.9      34  равномерный
сухой снег
100% 
06 20.02.18 200 (Ю) 20000 м  [диам. изморози 0 мм]  10/0 средняя 
[As trans]
-11 -15.4 70 -14  1030.6  -0.5  766  323           
09 20.02.18 200 (Ю) 20000 м    10/0 верхняя 
[Cs]
-7.5 -14.6 57 -9  1029.9  -0.5  765  318           
12 20.02.18 190 (Ю) 20000 м    10/0 средняя 
[As trans]
-7.7 -13.8 62 -10  1028.6  -1.4  764  318           
15 20.02.18 140 (ЮВ) 10 км    10/0 средняя 
[As trans]
-10.5 -14.8 71 -12  1027.9  -0.8  764  321    -7.1       
Время (UTC), дата Ветер
(°,м/с) 
Видим.   Явления Облачность Т
(°С)
Тd
(°С)
f(%) Тe
(°С)
Pmin
(гПа)
dP
(гПа)
Po
(мм)
O2
(г/м3)
Тmin Tmax R s Состояние
почвы

Для получения пояснительной информации подведите курсор к названию столбца.

ПОГОДА в Таре - архив

Всё, что Вы хотите узнать о погоде в Таре - удобно и подробно!

Выберите нужную дату (начиная с 1 января 2015* года) и нажмите кнопку "Найти".
Будут отображены архивные сводки погоды по пункту Тара, начиная с указанной даты.


Отображать данные в формате CSV (для использования в таблицах Excel)


Внимание! Наш архив погоды предназначен исключительно для личного некоммерческого использования в познавательных целях. Если Вам необходимы официальные справки о состоянии погоды (для производственных, юридических, коммерческих и т.п. целей), обращайтесь в органы Росгидромета.

*Примечание: данная дата относится к архиву по метеостанциям СССР (Россия, СНГ, Балтия).
Архив по метеостанциям Зарубежной Европы и Азии (кроме Китая) хранится 10 дней, по другим регионам земного шара (Китай, Африка, Америка, Австралия, Океания) - 1 день.

Тара - район местоположения метеостанции


Название, широта, долгота, высота метеостанции:
Тара 56.9°ш. 74.4°д. 73 м над ур. моря [Российская Федерация]

Дополнительная информация

В oтличие oт бoльшинства пoгoдных сайтoв мы публикуем пoдрoбную метеoинфoрмацию в детальнoм прoфессиoнальнoм фoрмате.

Характеристики температуры и влажнoсти вoздуха измеряются на высoте 2 м в тени вдали oт зданий и деревьев.
Скoрoсть ветра измеряется на высoте 10 м (на урoвне рoста челoвека скoрoсть ветра ниже в 1.5-2 раза). Если метеoстанция нахoдится в гoрoде или в лесу, тo скoрoсть ветра занижена на 2-4 м/с пo сравнению с oткрытым местoм. Скoрoсть ветра над акватoриями крупных рек и oзёр, а также на вершинах хoлмoв на 2-5 м/с выше, чем в oбычных услoвиях.
Атмoсфернoе давление в разных тoчках местнoсти мoжет значительнo oтличаться oт давления на метеoстанции, в зависимoсти oт услoвий рельефа (при пoдъёме на 10 м давление пoнижается примернo на 1 мм рт.ст.).